Location: 22
(39.7117°N, 89.5929°W)
Time: 09:27:15
(UTC-05:00)

S-56A Canister/Altair - Pass Details

Date: 11 February 2023
Orbit: 638 x 2493 km, 38.9° (Epoch: 25 March)

Event Time Altitude Azimuth Distance (km) Brightness Sun altitude
Rises 11:22:39 0° 275° (W) 2,939 10.4 35.1°
Reaches altitude 10° 11:24:53 10° 274° (W) 2,022 9.6 35.2°
Maximum altitude 11:29:20 74° 189° (S) 710 8.3 35.4°
Drops below altitude 10° 11:34:38 10° 105° (ESE) 2,396 10.5 35.6°
Sets 11:37:29 0° 104° (ESE) 3,541 11.2 35.7°
